Regional Weather Roundup
Issued by NWS

Home | Current Version | Previous Version | Graphics & Text | Print | Product List | Glossary On
Versions: 1 2 3 4 5 6 7 8 9 10 11 12 13 14 15 16 17 18 19 20 21 22 23 24 25 26 27 28 29 30 31 32 33 34 35 36 37 38 39 40 41 42 43 44 45 46 47 48 49 50
000
ASUS45 KBOI 200610
RWRID

IDAHO REGIONAL WEATHER ROUNDUP
NATIONAL WEATHER SERVICE BOISE ID
1100 PM MST SUN NOV 19 2017

NOTE: "FAIR" INDICATES FEW OR NO CLOUDS BELOW 12000 FEET
WITH NO SIGNIFICANT WEATHER AND/OR OBSTRUCTIONS TO VISIBILITY

IDZ012-014-200700-
SOUTHWEST IDAHO


CITY           SKY/WX    TMP DP  RH WIND       PRES   REMARKS
BOISE          CLOUDY    44  25  47 SE7       29.94F
CALDWELL       CLOUDY    37  31  78 W6        29.96S WCI  32
MOUNTAIN HOME  CLOUDY    37  26  65 SE16      29.96F WCI  28
$$

IDZ016-017-200700-
SOUTHCENTRAL IDAHO


CITY           SKY/WX    TMP DP  RH WIND       PRES   REMARKS
BURLEY         PTCLDY    36  24  62 VRB3      29.99R
JEROME         MOCLDY    33  26  75 NE17      30.00R WCI  22
TWIN FALLS     MOCLDY    37  25  61 NW3       29.99R
$$

IDZ019>023-200700-
SOUTHEAST IDAHO


CITY           SKY/WX    TMP DP  RH WIND       PRES   REMARKS
IDAHO FALLS    CLOUDY    29  26  89 CALM      30.03F
POCATELLO      CLOUDY    30  22  72 N5        30.01F WCI  25
REXBURG        CLOUDY    28  23  81 N6        30.03F WCI  22
$$

IDZ006-010-011-018-031-032-200700-
CENTRAL IDAHO MOUNTAINS


CITY           SKY/WX    TMP DP  RH WIND       PRES   REMARKS
MCCALL         CLOUDY    29  22  75 CALM      29.91S
HAILEY         PTCLDY    28  21  74 NW10      30.04F WCI  19
STANLEY          N/A     20  16  84 E5        29.95F WCI  13
SALMON         CLOUDY    33  23  66 VRB3      29.91F
CHALLIS        MOCLDY    28  22  78 SW3       29.95S
$$

IDZ002-004-006-007-026-200700-
NORTHERN IDAHO


CITY           SKY/WX    TMP DP  RH WIND       PRES   REMARKS
LEWISTON       CLOUDY    49  27  42 S16       29.74F
LOWELL           N/A     34  32  92 N5        29.87F WCI  30
COEUR D`ALENE  CLOUDY    43  26  51 S9        29.70S
MULLAN PASS    CLOUDY    27  18  69 S10G22    29.67F WCI  17
$$



USA.gov is the U.S. government's official web portal to all federal, state and local government web resources and services.